NAYIF-1 (EO-88) (42017 NORAD) Tracking and Keplerian Element Data

This shows tracking and keplerian element data for the satellite.

Feedback or suggestion? Click here.




ElementValue
Catalog42017
NameNAYIF-1 (EO-88)
Epoch Orbit32107
Epoch Day324.66554684
Epoch Year2022
RAAN28.9182
Inclination97.251
Eccentricity0.0004986
Argument of Perigee57.3602
Mean Anonmoly302.8125
Mean Motion15.41005679
Decay Rate0.00020823
L11 42017U 17008BX 22324.66554684 .00020823 00000+0 50600-3 0 9995
L22 42017 97.2510 28.9182 0004986 57.3602 302.8125 15.41005679321072



Live tracking and technical data element details for NAYIF-1 (EO-88) (NORAD 42017). NAYIF-1 (EO-88) can be tracked NOW for your location showing map with azimuth and elevation plus other details from your city location.







IsCatalogInMostPopularTable: catalog: 42017, numindb: 718
Update: records affected: 1



GetName: 42017 NAYIF-1 (EO-88)

Hit Count: updated at: Mon, 28 Nov 2022 04:54:04 GMT